Location: Newark
(35.8833°N, 14.5000°E)
Time: 01:25:49
(UTC+00:00)

Altair - Pass Details

Date: 25 November 2019
Orbit: 1502 x 1682 km, 47.2° (Epoch: 05 December)

Event Time Altitude Azimuth Distance (km) Brightness Sun altitude
Rises 05:41:49 0° 302° (WNW) 4,637 - -1.9°
Exits shadow 05:42:20 - 303° (WNW) 4,472 9.3 -1.8°
Reaches altitude 10° 05:44:52 10° 305° (NW) 3,660 8.8 -1.4°
Maximum altitude 05:54:04 70° 29° (NNE) 1,605 7.7 0.3°
Drops below altitude 10° 06:03:30 10° 113° (ESE) 3,754 12.1 2.0°
Sets 06:06:39 0° 116° (ESE) 4,761 13.6 2.6°
